OBJECT F, 54687

Orbit data source: Space-Track

You're viewing an Uncataloged Satellite

Recently launched and/or uncataloged satellites may have evolving metadata. Metadata may include but not limited to: Owner, Maufacturer, Bus, Motor, and Mission.

OBJECT F, 54687 is a Chinese satellite in SSO that was launched on Fri, 09 Dec 2022 UTC via a JIELONG-3 launch vehicle from the Yellow Sea Launch Area, China (YSLA). Unknown objects in Earth's orbit typically refer to objects detected orbiting the Earth but have not yet been identified or cataloged. These objects could be anything from previously untracked satellites, spent rocket stages, debris from satellite collisions, or even natural meteoroids temporarily captured by Earth's gravity.

Not visible in the next 10 days
Identifier
54687, 2022-167F
Orbit
SSO
Country
Flag of CNCN / PRC
Related business
None
Manufacturer
Unknown
Mission
Operational Commercial Imaging
Bus & Motor
Unknown
Mass
Unknown
Launch date (UTC)
2022-12-09 (4 years ago)
Launch vehicle
JIELONG-3
Launch site
Yellow Sea Launch Area, China (YSLA)
Object type
Unknown
Shape & HBR
Box, 0.1 m
Radar Cross Section
0.080 m², Medium (>0.1 m² and < 1m²)

Expand to show TLE details & history
Last TLE update: 1 day ago

TLE from 1 day ago
0 OBJECT F
1 54687U 22167F   26172.35407591  .00241483  24674-4  64316-3 0  9992
2 54687  97.6080   0.7970 0002032 231.4685 128.6407 15.94572901197492
Epoch: 2026-06-21T08:29Z
TLE epoch observation values (Epoch: 2026-06-21T08:29:52.158Z)
Latitude
-0.00011°
Longitude
-36.22586°
Altitude
293.536 km
Speed
7.731 km/s
True Right ascension
00h 03m 11s
True Declination
0° 00' 00"
Sunlit
Object was in daylight at epoch
Visualization orbit readout
Latitude
Unknown
Longitude
Unknown
Altitude
Unknown
Speed
Unknown
Apparent Right ascension
Unknown
Apparent Declination
Unknown
Sunlit
N/A
Visualization observer readout
Local Sidereal Time
21:33:39
Azimuth
Unknown
Elevation
Unknown
Doppler factor
Unknown
Orbital elements
Apogee altitude
287.735 km
Perigee altitude
285.027 km
Semi-major axis
6,664.518 km
Eccentricity
0.0002
Inclination
97.608°
RAAN
0.797°
Arg. of periapsis
231.4685°
True anomaly
128.65888°
Mean anomaly
128.6407°
Eccentric anomaly
128.64979°
Mean motion
3.98924 °/min
Orbital period
90.24 mins
BSTAR
0.00064316
Loading maneuver chart data...
Computing Atmospheric mass density...
Loading historical data...
Loading historical data...
Loading historical data...
Loading historical data...
Loading historical data...
Loading historical data...
Loading historical data...

Documentation

Showing up to 5 results
|